Hourly Weather Roundup
Issued by NWS Central Illinois

Home | Current Version | Previous Version | Text Only | Print | Product List | Glossary On
Versions: 1 2 3 4 5 6 7 8 9 10 11 12 13 14 15 16 17 18 19 20 21 22 23 24 25 26 27 28 29 30 31 32 33 34 35 36 37 38 39 40 41 42 43 44 45 46 47 48 49 50
000
NZUS43 KILX 022310
HWRILX

AREA WEATHER ROUNDUP
NATIONAL WEATHER SERVICE, LINCOLN IL
500 PM CST MON MAR 02 2015


CITY           SKY/WX    TMP DP  RH WIND       PRES   REMARKS
BLOOMINGTON    PTCLDY    25  19  77 SE7       30.39F WCI  17
CHAMPAIGN      MOCLDY    26  18  71 E3        30.41F
DECATUR        MOCLDY    27  21  78 E7        30.40F WCI  19
FLORA          PTCLDY    31  20  63 NE7       30.41F WCI  24
GALESBURG      CLOUDY    29  18  64 E5        30.36F WCI  24
JACKSONVILLE   PTCLDY    32  20  62 E9        30.38F WCI  24
LACON          CLOUDY    25  16  69 SE6       30.39F WCI  18
LAWRENCEVILLE  PTCLDY    32  20  61 NE7       30.43F WCI  26
LITCHFIELD     PTCLDY    32  16  52 E7        30.37F WCI  26
$$


CITY           SKY/WX    TMP DP  RH WIND       PRES   REMARKS
LINCOLN        MOCLDY    29  23  77 SE5       30.42F WCI  24
MACOMB         MOCLDY    28  19  69 SE7       30.40S WCI  21
MATTOON        PTCLDY    28  19  69 NE5       30.39F WCI  23
MT CARMEL AP   MOCLDY    34  19  55 NE7       30.42F WCI  28
OLNEY-NOBLE AP PTCLDY    32  19  59 NE6       30.41F WCI  26
PARIS          MOCLDY    29  21  73 CALM      30.43F
PEORIA         CLOUDY    30  18  60 S9        30.38F WCI  22
PONTIAC        CLOUDY    25  19  78 SE7       30.42F WCI  17
RANTOUL        MOCLDY    26  19  76 CALM      30.42F
ROBINSON       CLEAR     31  20  63 CALM      30.44F
SPRINGFIELD    MOCLDY    31  20  63 SE9       30.40F WCI  23
TAYLORVILLE    MOCLDY    30  19  64 E6        30.40F WCI  24
$$

...REGIONAL REPORTS...


CITY           SKY/WX    TMP DP  RH WIND       PRES   REMARKS
CHICAGO O`HARE CLOUDY    28  17  63 E8        30.39S WCI  20
KANKAKEE       CLOUDY    26  17  69 S8        30.43S WCI  18
MOLINE         CLOUDY    27  16  63 SE8       30.37F WCI  19
MOUNT VERNON   CLOUDY    30  18  59 NE9       30.39F WCI  22
PITTSFIELD     MOCLDY    33  20  60 E7        30.37F WCI  26
QUINCY         MOCLDY    32  18  56 SE8       30.35F WCI  25
ROCKFORD       CLOUDY    25  14  63 S8        30.39F WCI  16
$$


CITY           SKY/WX    TMP DP  RH WIND       PRES   REMARKS
BURLINGTON     CLOUDY    29  18  63 SE6       30.36F WCI  23
CEDAR RAPIDS   CLOUDY    25  17  72 S8        30.32F WCI  16
DES MOINES     CLOUDY    32  15  49 E12       30.26F WCI  23
KIRKSVILLE     PTSUNNY   33  22  63 E9        30.30F WCI  25
OTTUMWA        CLOUDY    30  17  58 SE8       30.32F WCI  22
ST LOUIS       MOCLDY    33  17  51 E12       30.36F WCI  24
$$


CITY           SKY/WX    TMP DP  RH WIND       PRES   REMARKS
TERRE HAUTE    MOCLDY    32  15  49 S3        30.43F
EVANSVILLE     CLOUDY    36  21  54 N8        30.40F WCI  30
INDIANAPOLIS   MOCLDY    27  14  58 SE8       30.42F WCI  19
LAFAYETTE      CLOUDY    27  15  61 S6        30.44S WCI  20
MADISON        CLOUDY    27  10  49 S8        30.35F WCI  19
MILWAUKEE      MOCLDY    26   9  48 S9        30.39F WCI  17
$$




USA.gov is the U.S. government's official web portal to all federal, state and local government web resources and services.